Regional Weather Roundup
Issued by NWS

Home | Current Version | Previous Version | Graphics & Text | Print | Product List | Glossary On
Versions: 1 2 3 4 5 6 7 8 9 10 11 12 13 14 15 16 17 18 19 20 21 22 23 24 25 26 27 28 29 30 31 32 33 34 35 36 37 38 39 40 41 42 43 44 45 46 47 48 49 50
000
ASUS45 KSLC 281610
RWRUT

UTAH REGIONAL WEATHER ROUNDUP
NATIONAL WEATHER SERVICE SALT LAKE CITY UT
1000 AM MDT TUE MAR 28 2017

UTZ001>011-023>025-281700-

NORTHERN UTAH

CITY           SKY/WX    TMP DP  RH WIND       PRES   REMARKS
BRIGHAM CITY     N/A     43  30  60 N12       30.15R
DUGWAY         MOSUNNY   42  31  67 NW13      30.16R
HILL AFB       MOSUNNY   42  30  64 NW16      30.13S
LOGAN          MOSUNNY   45  34  65 N15       30.15R
OGDEN          MOSUNNY   42  32  67 NW15      30.13S
SALT LAKE CITY MOSUNNY   42  33  70 N14       30.14R
TOOELE VALLEY  CLOUDY    43  32  65 N17       30.16S
WENDOVER       SUNNY     44  20  38 VRB3      30.20R
HEBER CITY     CLOUDY    39  28  65 N10       30.07R WCI  32
WEST JORDAN    CLOUDY    43  40  89 NW16      30.14S

$$

UTZ011>015-024>027-281700-

CENTRAL/NORTHEAST UTAH

CITY           SKY/WX    TMP DP  RH WIND       PRES   REMARKS
PROVO AIRPORT  MOSUNNY   43  34  70 N17G24    30.12R
MOAB/CANYONLAN CLOUDY    48  42  80 NW6       29.91R
DELTA          MOSUNNY   36  32  87 CALM      30.16R
PRICE          MOSUNNY   43  29  57 NW23G29   29.95S
RICHFIELD      CLOUDY    39  30  70 E6        30.13R WCI  35
ROOSEVELT      CLOUDY    43  37  81 CALM      29.97S
VERNAL         CLOUDY    48  31  51 N14G20    29.95R

$$

UTZ013>016-019>022-027-281700-

SOUTHERN UTAH

CITY           SKY/WX    TMP DP  RH WIND       PRES   REMARKS
BRYCE CANYON   CLOUDY    31  24  75 NW10      30.03R WCI  22
CEDAR CITY     PTSUNNY   36  27  69 NE9       30.11R WCI  29
MILFORD        PTSUNNY   39  29  67 NE14G24   30.14R WCI  31
ST GEORGE      MOSUNNY   54  28  36 NE16      30.04R
HANKSVILLE     CLOUDY    50  30  46 NW9       29.96R
KANAB          MOSUNNY   48  27  43 N16G28    30.03R
BLANDING       CLOUDY    40  39  94 W6        29.96R

$$

REGIONAL REPORTS     COLORADO/ARIZONA

CITY           SKY/WX    TMP DP  RH WIND       PRES   REMARKS
CRAIG, CO      FLURRIES  35  32  88 SW9       29.93R WCI  28
GRAND JUNCTION CLOUDY    44  42  93 NW8       29.90R
RIFLE, CO      CLOUDY    45  39  79 W8        29.89S
MONTROSE, CO   LGT RAIN  41  39  93 NW3       29.92S
CORTEZ, CO     CLOUDY    42  37  82 W5        29.88R
COLORADO CITY    N/A     46  28  49 NW20G29   30.05R
PAGE, AZ       CLOUDY    53  28  38 NW14      29.92R
GRAND CANYON   SUNNY     42  27  55 N10       29.96R
KINGMAN, AZ    SUNNY     52  14  22 N22G29    30.01R
FLAGSTAFF, AZ  PTSUNNY   39  31  72 NE8       29.93R WCI  33

$$

REGIONAL REPORTS    NEVADA/IDAHO/WYOMING

CITY           SKY/WX    TMP DP  RH WIND       PRES   REMARKS
LAS VEGAS, NV  SUNNY     59  20  22 NW23G32   30.06S
ELY, NY        SUNNY     32  23  69 N13       30.19R WCI  22
ELKO, NV       SUNNY     36  27  69 SW3       30.26R
POCATELLO, ID  MOSUNNY   38  33  82 W18       30.21F WCI  28
BURLEY, ID     CLOUDY    39  27  62 W14G22    30.23R WCI  31
FORT BRIDGER,  CLOUDY    35  34  96 W14       30.11R WCI  25
EVANSTON, WY   CLOUDY    32  27  81 N18       30.09R WCI  20
ROCK SPRINGS,  HVY SNOW  33  31  92 N12       30.03R VSB 1/4 WCI  24
KEMMERER, WY     N/A     32  28  86 NW9       30.08R WCI  24

$$



USA.gov is the U.S. government's official web portal to all federal, state and local government web resources and services.